Flight Track Log - Related Links

Times and Time Zones

All times are in EDT time to prevent confusion due to time zone crossing. See the N70RB flight status page for this flight to view local times or setup timezone preferences in your user account.

Time Position Orientation Groundspeed Altitude Reporting Facility
EDT Latitude Longitude Course Direction KTS MPH feet Rate Location/Type
Wed 10:40:21 PM 42.3106 -86.1414 87° East 133 153 3,800  Level Chicago Center
Wed 10:41:14 PM 42.3125 -86.1047 86° East 125 144 4,300 632 Climbing Chicago Center
Wed 10:42:15 PM 42.3119 -86.0594 91° East 124 143 5,000 393 Climbing Chicago Center
Wed 10:43:16 PM 42.3142 -86.0114 86° East 124 143 5,100 49 Climbing Chicago Center
Wed 10:44:00 PM 42.3333 -86.0268 90° East  Level FlightAware Approximate
Wed 10:44:17 PM 42.3186 -85.9592 83° East 134 154 5,100  Level Chicago Center
Wed 10:45:12 PM 42.3206 -85.9086 87° East 138 159 5,100  Level Chicago Center
Wed 10:46:06 PM 42.3225 -85.8667 86° East 138 159 5,100  Level Chicago Center
Wed 10:46:21 PM 42.3225 -85.8600 90° East 135 155 5,100 -295 Level Chicago Center
Wed 10:47:07 PM 42.3247 -85.8133 86° East 138 159 4,800 -295 Descending Chicago Center
Wed 10:47:22 PM 42.3261 -85.7975 83° East 136 157 4,800 -400 Level Chicago Center
Wed 10:48:07 PM 42.3292 -85.7547 84° East 152 175 4,400 -492 Descending Chicago Center
Wed 10:48:23 PM 42.3292 -85.7400 90° East 147 169 4,300 -358 Descending Chicago Center
Wed 10:49:14 PM 42.3317 -85.6900 86° East 157 181 4,000 -295 Descending Chicago Center
Wed 10:49:24 PM 42.3336 -85.6825 71° East 151 174 4,000  Level Chicago Center
Wed 10:50:26 PM 42.3358 -85.6292 87° East 150 173 4,000 49 Level Chicago Center
Wed 10:51:26 PM 42.3500 -85.5836 67° East 139 160 4,100 58 Climbing Chicago Center
Wed 10:52:10 PM 42.3644 -85.5489 61° Northeast 140 161 4,100  Level Chicago Center
Wed 10:52:28 PM 42.3683 -85.5361 68° East 139 160 4,100  Level Chicago Center
Wed 10:53:10 PM 42.3831 -85.4997 61° Northeast 141 162 4,100  Level Chicago Center
Wed 10:53:29 PM 42.3867 -85.4883 67° East 140 161 4,100  Level Chicago Center
Wed 10:54:11 PM 42.4014 -85.4531 61° Northeast 141 162 4,100  Level Chicago Center
Wed 10:54:30 PM 42.4050 -85.4419 66° East 140 161 4,100  Level Chicago Center
Wed 10:55:11 PM 42.4139 -85.4003 74° East 141 162 4,100  Level Chicago Center
Wed 10:55:31 PM 42.4167 -85.3917 66° East 140 161 4,100 -98 Level Chicago Center
Wed 10:56:12 PM 42.4261 -85.3506 73° East 141 162 4,000  Descending Chicago Center
Wed 10:56:32 PM 42.4283 -85.3408 73° East 140 161 4,100 98 Climbing Chicago Center
Wed 10:57:13 PM 42.4386 -85.2978 72° East 142 163 4,100  Level Chicago Center
Wed 10:57:33 PM 42.4419 -85.2792 76° East 140 161 4,100  Level Chicago Center
Wed 10:58:13 PM 42.4508 -85.2450 71° East 141 162 4,100  Level Chicago Center
Wed 10:58:34 PM 42.4544 -85.2297 72° East 141 162 4,100  Level Chicago Center
Wed 10:59:14 PM 42.4631 -85.1953 71° East 139 160 4,100  Level Chicago Center
Wed 10:59:35 PM 42.4661 -85.1794 75° East 140 161 4,100 -500 Level Chicago Center
Wed 11:00:14 PM 42.4731 -85.1481 73° East 139 160 3,600 -689 Descending Chicago Center
Wed 11:00:36 PM 42.4772 -85.1297 73° East 140 161 3,400 -590 Descending Chicago Center
Wed 11:01:15 PM 42.4664 -85.1025 118° Southeast 146 168 3,000 -393 Descending Chicago Center
Wed 11:01:37 PM 42.4572 -85.1006 171° South 133 153 3,000  Level Chicago Center
Wed 11:02:16 PM 42.4350 -85.1089 195° South 118 136 3,000 97 Level Chicago Center
Wed 11:02:39 PM 42.4244 -85.1119 192° South 122 140 3,100 100 Climbing Chicago Center
Wed 11:03:16 PM 42.4028 -85.1294 211° Southwest 122 140 3,100  Level Chicago Center
Wed 11:03:40 PM 42.3978 -85.1383 233° Southwest 121 139 3,100  Level Chicago Center
Wed 11:04:41 PM 42.3747 -85.1711 226° Southwest 122 140 3,100  Level Chicago Center
Wed 11:06:00 PM 42.3422 -85.2247 231° Southwest  Level FlightAware Approximate
Wed 11:13:00 PM 42.3000 -85.2500 144° Southeast  Level FlightAware Approximate

Login

Don't have an account? Register now (free) for customized features, flight alerts, and more!